Regional Weather Roundup
Issued by NWS

Home | Current Version | Previous Version | Graphics & Text | Print | Product List | Glossary On
Versions: 1 2 3 4 5 6 7 8 9 10 11 12 13 14 15 16 17 18 19 20 21 22 23 24 25 26 27 28 29 30 31 32 33 34 35 36 37 38 39 40 41 42 43 44 45 46 47 48 49 50
000
ASUS43 KMPX 291601
RWRMN
WEATHER ROUNDUP FOR MINNESOTA
NATIONAL WEATHER SERVICE TWIN CITIES/CHANHASSEN MN
1100 AM CDT FRI MAY 29 2015


NOTE: "FAIR" INDICATES FEW OR NO CLOUDS BELOW 12,000 FEET WITH NO
SIGNIFICANT WEATHER AND/OR OBSTRUCTIONS TO VISIBILITY. N/A MEANS
CURRENT SKY AND/OR WEATHER CONDITIONS ARE NOT AVAILABLE.

MNZ060>063-068>070-291700-
   Twin Cities Metro

CITY           SKY/WX    TMP DP  RH WIND       PRES   REMARKS
TWIN CITIES    CLOUDY    70  64  81 SW7       29.89S
ST PAUL        LGT RAIN  69  65  86 SW7       29.89S
CRYSTAL        LGT RAIN  68  64  87 S8        29.88R
BLAINE         LGT RAIN  70  66  88 SW7       29.88S
LAKEVILLE      CLOUDY    66  64  94 W6        29.90R
EDEN PRAIRIE   CLOUDY    69  63  81 SW5       29.88S
SOUTH ST PAUL  DRIZZLE   69  66  88 W6        29.90R
LAKE ELMO      DRIZZLE   68  66  94 SW5       29.90S
$$
MNZ001>005-007-008-013>017-022>024-027-028-291700-
   Northwest Minnesota

CITY           SKY/WX    TMP DP  RH WIND       PRES   REMARKS
BEMIDJI        CLOUDY    47  45  91 N17       30.03R
HALLOCK        CLOUDY    45  37  76 N18G26    30.17R
ROSEAU         CLOUDY    46  39  76 N22G29    30.11R
WARROAD        CLOUDY    46  41  81 NW15G23   30.09R
THIEF RVR FALL CLOUDY    45  37  76 N18       30.11R
CROOKSTON      CLOUDY    45  39  81 N23G30    30.14R
FOSSTON        CLOUDY    45  43  93 N18       30.09R
DETROIT LAKES  CLOUDY    48  46  93 N10G31    30.05R
MOORHEAD       CLOUDY    46  43  87 N29G35    30.10R
PARK RAPIDS    CLOUDY    52  49  89 N16       30.00R
MAHNOMEN       CLOUDY    47  44  87 N21       30.06R
$$
MNZ006-009>011-018-025>026-291700-
   North Central Minnesota

CITY           SKY/WX    TMP DP  RH WIND       PRES   REMARKS
BAUDETTE       CLOUDY    48  41  76 NW20G28   30.04R
FLAG ISLAND    CLOUDY    46  39  76 NW26      30.06R
INTL FALLS     CLOUDY    50  47  89 NW14      29.98R
WASKISH        CLOUDY    46  45  93 NW7G18      N/A
BIG FORK       CLOUDY    52  50  93 NW8       29.98R
LONGVILLE      DRIZZLE   55  54  94 NW7       29.97R
GRAND RAPIDS   CLOUDY    57  52  82 NW15      29.95R
CRANE LAKE     CLOUDY    55  54  94 N9        29.94R
ORR            CLOUDY    55  52  88 NW10G16   29.91R
COOK           LGT RAIN  57  55  94 N6        29.93R
WALKER         CLOUDY    49  49  97 N13G23    29.99R FOG
$$
MNZ012-019>021-037-291700-
   Northeast Minnesota

CITY           SKY/WX    TMP DP  RH WIND       PRES   REMARKS
DULUTH         PTSUNNY   68  56  65 VRB6      29.88R
HIBBING        RAIN      59  56  89 N16G25    29.91R FOG
EVELETH        LGT RAIN  59  57  94 N5        29.91R
DULUTH HARBOR  PTSUNNY   52  46  82 CALM      29.89R
TWO HARBORS    PTSUNNY   70  61  73 SW5       29.85S
SILVER BAY     PTSUNNY   68  57  68 CALM      29.84S
GRAND MARAIS     N/A     42  40  92 SW3       29.86S
G MARAIS ARPRT CLOUDY    61  55  82 W6        29.86F
$$
MNZ029>031-032-039>041-046>048-054>057-064-291700-
   West Central Minnesota

CITY           SKY/WX    TMP DP  RH WIND       PRES   REMARKS
FERGUS FALLS   CLOUDY    52  50  93 N16G26    30.03R
WHEATON        LGT RAIN  46  45  93 N24G36    30.05R
MORRIS         CLOUDY    54  52  94 NW20G30   29.97R
ALEXANDRIA     LGT RAIN  60  58  92 N9        29.96R FOG
ELBOW LAKE     LGT RAIN  52  51  97 N17       30.00R
WADENA         DRIZZLE   55  54  94 N15       29.98R
GLENWOOD       LGT RAIN  61  61 100 N10       29.95R
APPLETON       DRIZZLE   55  52  88 N24       29.97R
BENSON         LGT RAIN  59  55  88 N14       29.95R
ORTONVILLE     RAIN      50  46  87 N20G31    30.00R
MADISON        LGT RAIN  54  52  94 N21G28    29.98R
WILLMAR        LGT RAIN  64  63  94 N15       29.93S
$$
MNZ033>034-036-042>043-049>051-058-059-291700-
   Central Minnesota

CITY           SKY/WX    TMP DP  RH WIND       PRES   REMARKS
ST CLOUD       CLOUDY    66  59  78 N8        29.90R
SAUK CENTRE    LGT RAIN  62  60  91 N6        29.94R
PAYNESVILLE    RAIN      61  58  91 NW10      29.92S
AITKIN         LGT RAIN  64  57  77 NW6       29.91R
PINE RIVER     DRIZZLE   55  55 100 N10       30.00R
BRAINERD       LGT RAIN  60  56  86 N16       29.94R
STAPLES        DRIZZLE   57  55  94 N15       29.96R
LONG PRAIRIE   LGT RAIN  61  59  94 NW6       29.94S
LITTLE FALLS   LGT RAIN  63  57  82 NW7       29.93R
LITCHFIELD     DRIZZLE   68  64  88 N9        29.91R
BUFFALO        CLOUDY    66  62  86 CALM      29.90S
MAPLE LAKE     LGT RAIN  68  64  87 NW7       29.90S
$$
MNZ037-044-045-052-053-291700-
   East Central Minnesota

CITY           SKY/WX    TMP DP  RH WIND       PRES   REMARKS
PRINCETON      CLOUDY    68  63  83 NW7       29.90R
MORA           CLOUDY    64  55  72 NW7       29.91R
CAMBRIDGE      LGT RAIN  68  59  73 CALM      29.87S
RUSH CITY      LGT RAIN  67  64  88 CALM      29.89S
MOOSE LAKE     CLOUDY    66  57  72 NW6       29.89R
HINCKLEY       CLOUDY    68  63  83 CALM      29.90R
CLOQUET        CLOUDY    66  55  68 NW8       29.89R
MCGREGOR       CLOUDY    64  59  82 NW9       29.92R
$$
MNZ071>073-080-081-089-090-097-098-291700-
   Southwest Minnesota

CITY           SKY/WX    TMP DP  RH WIND       PRES   REMARKS
MONTEVIDEO     RAIN      61  61 100 N17G23    29.95R
GRANITE FALLS  DRIZZLE   62  60  94 NW12      29.94R
CANBY          RAIN      53  52  95 N17G25    29.98R
MARSHALL       CLOUDY    61  55  82 N16G25    29.92R
REDWOOD FALLS  LGT RAIN  66  63  90 N3        29.90S
OLIVIA         CLOUDY    66  59  77 N10G16    29.90R
PIPESTONE      CLOUDY    66  63  88 NW3       29.91S
WINDOM         CLOUDY    66  63  88 CALM      29.91F
WORTHINGTON    CLOUDY    64  63  94 S8        29.91F
JACKSON        LGT RAIN  66  64  94 SW9       29.92S
TRACY          RAIN      63  62  97 N9        29.92R
SLAYTON        RAIN      62  62  99 CALM      29.93R
$$
MNZ065>067-074>077-082>085-091>093-291700-
   South Central Minnesota

CITY           SKY/WX    TMP DP  RH WIND       PRES   REMARKS
MANKATO        CLOUDY    66  61  82 SW10      29.91R
NEW ULM        CLOUDY    66  64  94 W6        29.90S
ST JAMES       CLOUDY    70  66  88 SW5       29.91F
FAIRMONT       CLOUDY    66  61  82 SW12      29.91R
GLENCOE        DRIZZLE   68  65  90 W5        29.89S
FARIBAULT      CLOUDY    68  64  88 CALM      29.90R
OWATONNA       LGT RAIN  68  63  83 S9        29.90S
WASECA         CLOUDY    64  61  88 SW10      29.93R
ALBERT LEA     CLOUDY    70  64  83 S5        29.91F
$$
MNZ078>079-086>088-094>096-291700-
   Southeast Minnesota

CITY           SKY/WX    TMP DP  RH WIND       PRES   REMARKS
ROCHESTER      CLOUDY    70  63  78 S15       29.92F
RED WING       CLOUDY    70  64  83 S5        29.89R
STANTON        CLOUDY    69  63  81 W6        29.90R
DODGE CENTER   CLOUDY    68  63  83 S15       29.92R
WINONA         CLOUDY    73  64  73 SW6       29.92S
AUSTIN         CLOUDY    70  64  83 S8        29.92S
PRESTON        CLOUDY    68  62  81 SW5       29.94F
$$
ABBREVIATIONS USED IN REMARKS
   TC - TEMPERATURES IN CELSIUS
  WCI - WIND CHILL INDEX
   HX - HEAT INDEX
  VSB - VISIBILITY
$$


USA.gov is the U.S. government's official web portal to all federal, state and local government web resources and services.